Date,TemperatureHighF,TemperatureAvgF,TemperatureLowF,DewpointHighF,DewpointAvgF,DewpointLowF,HumidityHigh,HumidityAvg,HumidityLow,PressureMaxIn,PressureMinIn,WindSpeedMaxMPH,WindSpeedAvgMPH,GustSpeedMaxMPH,PrecipitationSumIn
2013-1-6,26.4,18.6,11.8,18.0,11.2,7.4,83,73,62,30.09,29.97,15,4,19,0.00
2013-1-7,40.5,28.0,13.6,21.6,16.1,7.9,82,61,42,30.08,29.62,21,7,21,0.00
2013-1-8,43.9,32.7,22.6,31.2,23.2,17.4,81,69,43,29.97,29.64,9,2,21,0.00
2013-1-9,38.3,35.1,28.4,28.9,23.9,19.6,81,63,53,30.30,29.60,14,4,25,0.00
2013-1-10,43.2,32.3,22.1,30.4,21.3,17.1,81,66,36,30.33,29.87,8,2,18,0.00
2013-1-11,42.4,39.3,35.8,38.2,34.9,28.1,89,84,66,29.85,29.42,6,2,19,0.01
2013-1-12,47.3,40.0,27.9,41.9,30.7,16.0,90,70,52,29.80,29.32,13,4,29,0.00
2013-1-13,27.7,22.6,17.2,16.0,11.4,6.5,67,62,58,29.90,29.79,8,3,15,0.00
2013-1-14,28.4,18.0,11.7,6.9,4.0,-1.5,70,55,33,30.20,29.90,8,4,17,0.00
2013-1-15,31.1,18.5,8.6,11.3,3.8,-1.5,66,53,31,30.22,29.82,8,3,24,0.00
2013-1-16,31.8,23.8,15.6,22.3,14.1,6.4,83,66,52,29.95,29.43,11,5,25,0.00
2013-1-17,15.3,8.3,1.6,8.2,-1.7,-5.2,75,63,46,30.19,29.97,9,4,21,0.00
2013-1-18,17.8,10.5,1.9,13.5,4.2,-5.5,84,75,65,30.20,29.66,6,2,14,0.00
2013-1-19,32.0,22.6,14.9,27.1,16.7,5.3,86,78,63,29.69,29.33,13,2,33,0.00
2013-1-20,14.5,7.5,-3.5,8.9,-1.4,-9.3,83,67,45,30.05,29.58,14,6,32,0.05
2013-1-21,4.6,-1.4,-7.6,-8.3,-13.8,-22.4,66,55,33,30.02,29.87,13,6,24,0.00
2013-1-22,3.9,-3.9,-10.3,-11.3,-15.4,-19.2,65,57,43,30.12,30.01,9,4,19,0.00
2013-1-23,14.2,6.1,-3.5,7.7,-4.4,-14.0,81,61,47,30.24,29.90,15,5,36,0.14
2013-1-24,19.6,9.5,3.2,5.8,-1.2,-6.3,82,62,35,30.52,30.25,12,3,27,0.00
2013-1-25,27.1,14.9,9.3,13.0,7.6,-1.5,84,73,50,30.26,29.80,4,2,14,0.00
2013-1-26,25.7,21.9,18.5,19.5,13.0,10.9,84,68,55,30.24,29.92,15,4,26,0.00
2013-1-27,35.4,28.0,22.5,28.1,17.1,11.6,87,64,48,30.19,29.87,8,2,21,0.00
2013-1-28,36.9,32.1,29.3,30.8,28.1,25.9,88,85,78,29.86,29.73,3,0,7,0.01
2013-1-29,39.0,34.7,32.7,34.9,30.7,28.3,89,85,79,29.77,29.37,8,2,16,0.40
2013-1-30,34.3,25.4,18.0,29.1,20.2,12.9,86,81,69,29.49,29.28,14,3,29,0.46
2013-1-31,18.0,13.7,10.9,13.2,7.9,4.7,82,77,67,29.81,29.28,0,0,0,0.25
2013-2-1,15.4,7.4,-2.6,5.2,-2.6,-9.8,78,63,47,30.01,29.81,9,3,25,0.00
2013-2-2,19.4,4.5,-4.0,1.8,-5.2,-10.6,76,64,43,29.99,29.86,8,2,17,0.00
2013-2-3,16.5,7.4,-2.6,4.4,-2.0,-8.7,77,65,44,29.86,29.70,11,3,22,0.00
2013-2-4,23.9,5.0,-8.1,1.3,-5.2,-13.6,78,64,35,29.89,29.77,6,2,13,0.00
2013-2-5,28.0,12.4,-7.1,16.2,3.9,-12.7,79,69,47,29.92,29.58,10,3,23,0.00
2013-2-6,25.9,13.4,-3.1,13.8,4.7,-8.1,82,69,48,30.09,29.93,3,1,8,0.00
2013-2-7,25.3,22.0,18.3,19.4,16.2,12.8,85,78,61,30.12,30.06,11,2,24,0.00
2013-2-8,30.4,19.8,3.2,17.3,10.4,-1.7,82,67,50,30.28,30.11,9,3,19,0.00
2013-2-9,33.3,16.5,-3.5,19.9,8.7,-8.7,83,71,51,30.27,29.99,9,3,24,0.00
2013-2-10,33.8,29.1,23.7,30.6,23.7,17.9,88,80,72,30.00,29.30,4,1,10,0.06
2013-2-11,36.1,30.6,21.6,34.0,25.9,14.3,92,83,70,29.70,29.14,8,1,21,0.26
2013-2-12,31.3,24.6,18.3,17.9,15.7,13.1,81,69,50,29.83,29.64,7,1,14,0.00
2013-2-13,47.8,28.2,16.5,27.3,19.6,12.0,83,71,41,29.64,29.50,5,1,13,0.00
2013-2-14,32.7,27.4,19.6,26.9,20.7,9.2,84,76,57,29.85,29.53,14,5,27,0.00
2013-2-15,20.8,16.3,11.1,11.8,6.5,0.8,71,65,57,30.06,29.85,17,5,27,0.05
2013-2-16,23.0,14.5,9.1,6.7,3.6,-0.1,79,62,44,30.07,29.97,9,4,20,0.00
2013-2-17,29.3,12.2,-6.7,5.3,-1.9,-12.4,79,56,25,30.05,29.85,6,2,15,0.00
2013-2-18,36.9,30.4,16.9,29.3,21.9,0.8,85,71,48,29.85,29.33,8,3,19,0.00
2013-2-19,32.4,19.5,11.7,28.4,14.8,5.2,87,81,73,29.87,29.27,19,9,38,1.67
2013-2-20,18.1,15.8,14.0,11.9,9.9,7.3,81,77,74,30.30,29.88,20,10,41,3.21
2013-2-21,24.3,21.9,18.1,19.3,16.6,11.9,84,80,75,30.37,30.20,12,4,24,0.00
2013-2-22,27.7,22.3,16.3,22.0,17.5,12.1,84,82,76,30.20,29.71,3,0,8,0.00
2013-2-23,39.9,27.7,17.6,26.9,22.2,13.9,87,80,57,29.74,29.62,8,1,17,0.13
2013-2-24,34.0,29.4,27.1,26.4,23.9,22.5,87,80,66,30.01,29.74,6,2,17,0.04
2013-2-25,35.2,25.9,20.7,26.0,21.3,16.9,86,83,65,30.02,29.99,2,0,4,0.01
2013-2-26,37.6,32.4,27.5,28.9,25.6,23.0,84,76,68,30.03,29.83,5,1,16,0.00
2013-2-27,34.7,32.3,30.6,29.4,27.2,24.0,89,81,73,29.83,29.70,8,4,21,0.01
2013-2-28,31.8,28.0,25.2,27.8,21.4,16.1,86,76,67,30.12,29.78,12,7,27,0.00
2013-3-1,28.2,23.6,21.0,17.8,13.4,10.4,75,65,49,30.25,30.11,11,5,20,0.00
2013-3-2,25.3,21.1,15.1,15.2,11.3,6.4,74,65,53,30.17,30.06,10,4,19,0.00
2013-3-3,30.4,21.6,15.4,14.8,10.9,5.5,73,63,49,30.06,30.01,8,3,17,0.00
2013-3-4,33.8,20.8,9.1,18.8,11.7,4.2,83,69,44,30.10,30.01,6,1,12,0.00
2013-3-5,31.8,19.8,3.7,25.0,12.9,-0.9,83,75,61,30.08,30.01,7,2,17,0.00
2013-3-6,31.5,28.0,22.3,26.9,22.3,14.4,86,79,71,30.22,30.05,8,3,15,0.00
2013-3-7,31.5,24.9,18.0,20.2,16.2,12.4,80,70,51,30.34,30.19,7,1,13,0.00
2013-3-8,43.9,27.9,8.2,22.6,17.2,4.2,85,66,38,30.36,30.15,7,2,15,0.01
2013-3-9,39.0,33.8,27.9,31.2,27.0,22.5,85,76,66,30.15,29.72,6,3,17,0.08
2013-3-10,37.2,35.1,32.7,32.4,30.3,26.9,86,82,77,29.86,29.65,9,3,23,0.04
2013-3-11,32.9,31.0,26.4,29.2,27.0,22.6,87,85,82,29.80,29.45,8,3,22,0.00
2013-3-12,26.6,22.9,19.0,22.4,16.0,10.6,85,75,60,29.79,29.50,11,4,27,0.02
2013-3-13,31.6,24.0,12.2,18.8,13.1,7.3,83,63,42,30.11,29.80,15,6,27,0.00
2013-3-14,48.9,26.4,5.7,27.1,11.6,1.5,84,58,24,30.12,29.80,7,1,16,0.01
2013-3-15,31.6,31.6,31.5,27.1,27.0,26.9,83,83,83,29.81,29.80,0,0,3,0.00
2013-3-18,29.1,28.9,28.8,24.9,24.7,24.5,84,84,84,29.42,29.35,0,0,0,0.00
2013-3-19,31.6,26.8,21.2,24.7,17.6,12.0,85,69,50,29.71,29.31,15,4,35,0.04
2013-3-20,26.4,21.1,14.7,17.0,10.9,7.4,80,64,53,29.84,29.71,10,5,24,0.00
2013-3-21,26.8,23.4,12.4,19.6,15.8,6.6,83,72,60,29.90,29.81,11,5,21,0.00
2013-3-22,35.1,26.2,7.9,25.3,19.8,3.3,85,77,61,29.99,29.86,8,4,18,0.00
2013-3-23,37.9,30.2,26.4,25.7,22.1,19.5,79,72,59,30.05,29.97,7,2,14,0.00
2013-3-24,35.6,29.9,26.6,25.8,22.1,19.1,80,73,59,30.04,29.85,9,2,21,0.01
2013-3-25,36.3,31.5,28.2,25.8,24.2,22.6,84,74,63,29.99,29.84,9,4,19,0.00
2013-3-26,41.9,34.7,31.6,30.8,27.7,22.5,86,76,60,30.09,29.98,9,4,16,0.06
2013-3-27,42.1,34.8,25.5,28.0,23.0,18.9,77,62,50,30.15,30.07,7,3,15,0.00
2013-3-28,47.7,31.4,17.4,31.5,22.7,13.1,85,71,52,30.20,30.14,8,1,11,0.00
2013-3-29,52.5,36.0,19.6,23.5,17.7,13.9,83,53,22,30.18,30.05,4,1,8,0.00
2013-3-30,44.2,35.7,28.8,35.0,27.2,18.8,87,72,46,30.04,29.63,8,2,19,0.18
2013-3-31,45.1,33.9,24.3,34.2,25.2,16.8,88,72,39,29.74,29.45,14,4,32,0.14
2013-4-1,30.6,24.0,20.8,19.9,12.1,5.7,83,61,37,29.96,29.74,13,5,30,0.01
2013-4-2,32.7,26.3,16.2,14.5,10.7,7.1,68,52,35,30.16,29.94,14,4,28,0.00
2013-4-3,47.3,32.4,21.0,21.0,12.0,3.0,57,44,16,30.31,29.99,7,3,19,0.00
2013-4-4,46.0,37.4,30.9,30.9,23.9,14.6,74,58,47,29.99,29.79,9,3,20,0.00
2013-4-5,37.8,31.9,25.3,23.8,16.9,14.7,67,54,40,30.17,29.97,11,4,21,0.00
2013-4-6,39.4,32.1,24.3,31.8,25.5,16.1,85,76,69,30.08,29.44,7,2,20,0.22
2013-4-7,39.2,34.4,26.8,30.4,28.3,22.1,86,78,66,29.90,29.41,11,3,28,0.12
2013-4-8,36.7,32.5,25.9,31.2,28.0,21.5,86,83,80,29.93,29.76,2,0,4,0.35
2013-4-9,37.2,34.1,32.2,33.1,28.1,23.9,86,78,70,30.11,29.92,10,3,25,0.01
2013-4-10,41.9,35.5,32.0,27.0,24.6,22.9,74,65,50,30.13,30.04,8,3,19,0.00
2013-4-11,35.6,32.8,29.3,27.8,22.8,19.1,84,66,55,30.07,29.78,7,3,21,0.00
2013-4-12,34.9,30.0,27.7,28.4,25.1,22.6,85,82,76,29.77,29.59,8,2,17,0.08
2013-4-13,38.7,31.8,25.7,30.4,25.2,20.7,85,77,64,29.82,29.59,10,2,18,0.07
2013-4-14,46.6,34.4,25.9,31.3,26.5,21.6,85,73,53,29.93,29.79,6,1,16,0.00
2013-4-15,61.0,43.9,32.9,38.7,30.0,22.5,85,62,29,29.79,29.47,11,3,26,0.44
2013-4-16,45.7,39.4,35.8,32.1,27.2,24.8,68,61,50,30.01,29.72,6,2,18,0.00
2013-4-17,40.8,35.4,29.8,31.8,29.8,25.3,84,80,70,30.33,29.99,6,2,11,0.00
2013-4-18,38.3,35.3,34.0,34.2,30.5,28.8,86,82,80,29.98,29.26,4,1,11,0.45
2013-4-19,37.0,31.6,23.9,33.5,26.6,17.9,87,81,70,29.65,28.98,18,6,40,0.15
2013-4-20,33.6,26.9,20.1,19.3,16.2,13.6,85,65,45,30.32,29.65,16,5,34,0.00
2013-4-21,48.4,33.1,15.3,28.3,19.3,11.6,86,60,31,30.39,30.11,11,4,26,0.00
2013-4-22,44.6,38.3,34.5,37.8,32.8,28.3,87,81,67,30.13,30.03,5,2,17,0.50
2013-4-23,37.4,34.7,28.8,31.7,28.8,24.0,86,79,73,30.07,29.78,9,3,21,0.12
2013-4-24,50.9,36.8,23.4,30.1,22.5,16.1,87,59,28,29.88,29.79,4,1,11,0.00
2013-4-25,49.1,38.3,29.3,33.9,28.6,22.3,85,69,47,30.10,29.75,9,2,14,0.21
2013-4-26,63.9,43.0,28.0,38.4,31.2,23.6,84,66,37,30.11,29.95,12,2,24,0.01
2013-4-27,71.1,50.6,32.9,49.3,38.6,28.6,86,66,44,30.05,29.88,7,1,14,0.00
2013-4-28,75.9,61.5,48.0,45.7,40.9,33.4,78,51,27,29.89,29.65,8,3,18,0.00
2013-4-29,67.3,56.5,48.6,52.5,45.2,33.8,84,67,45,29.71,29.64,6,2,13,0.06
2013-4-30,73.0,58.7,47.3,56.3,49.8,42.7,84,73,55,29.73,29.51,14,4,35,0.01
2013-5-1,61.2,48.6,38.5,50.5,40.8,31.6,88,75,53,30.30,29.73,11,3,21,0.24
2013-5-2,40.5,36.1,33.3,33.0,31.1,29.1,85,82,70,30.35,30.25,15,8,28,0.14
2013-5-3,40.8,35.8,33.1,33.5,31.1,29.1,85,83,74,30.27,30.11,11,6,25,0.08
2013-5-4,44.6,39.1,35.2,36.3,33.8,31.2,86,81,70,30.12,30.06,9,4,20,0.05
2013-5-5,46.2,40.4,34.2,36.8,34.3,29.8,86,79,65,30.11,30.04,7,2,13,0.00
2013-5-6,52.5,42.4,29.7,39.3,33.8,25.2,89,72,56,30.06,29.97,5,1,12,0.00
2013-5-7,63.9,48.7,34.7,44.3,38.4,30.1,87,69,45,30.03,29.90,5,1,10,0.00
2013-5-8,79.9,55.3,39.7,43.0,37.5,34.6,86,55,23,29.94,29.88,7,1,11,0.00
2013-5-9,52.0,41.5,37.2,40.4,35.7,33.0,86,80,63,30.08,29.90,9,4,18,0.07
2013-5-10,44.4,38.2,30.0,32.9,27.4,24.5,82,66,47,30.09,29.85,9,4,20,0.00
2013-5-11,48.6,39.2,30.2,35.4,30.4,25.1,86,72,43,29.86,29.65,11,4,27,0.39
2013-5-12,42.6,36.1,27.9,31.0,26.5,22.4,86,69,53,29.99,29.77,16,7,40,0.56
2013-5-13,52.3,44.4,27.1,30.7,25.7,22.7,84,50,32,29.99,29.81,5,2,14,0.00
2013-5-14,71.6,55.0,41.7,42.3,36.3,30.1,76,51,33,29.81,29.39,8,3,17,0.01
2013-5-15,77.4,65.5,50.4,44.5,37.6,25.8,67,40,16,29.65,29.34,11,5,29,0.00
2013-5-16,62.2,46.4,35.6,38.3,36.0,31.8,87,68,39,30.01,29.65,9,3,15,0.00
2013-5-17,54.7,44.1,33.4,38.5,35.5,30.0,88,73,53,30.11,30.01,5,1,10,0.00
2013-5-18,63.7,54.8,42.1,47.5,43.6,37.3,85,67,47,30.05,29.85,4,1,10,0.00
2013-5-19,74.3,58.9,45.5,58.6,49.0,41.3,87,70,50,29.85,29.74,7,2,13,0.00
2013-5-20,56.3,47.0,42.6,50.9,42.7,38.7,88,85,75,29.77,29.62,8,2,12,0.05
2013-5-21,56.3,45.2,42.1,50.2,41.1,38.3,88,85,74,29.67,29.55,6,2,11,0.28
2013-5-22,45.9,43.1,41.9,41.9,38.6,37.0,88,84,80,29.86,29.65,10,4,20,0.30
2013-5-23,48.0,41.5,37.6,37.7,32.4,29.2,85,71,51,30.22,29.87,12,6,26,0.00
2013-5-24,57.2,45.3,31.3,35.8,32.4,27.3,87,63,37,30.35,30.22,5,2,11,0.00
2013-5-25,62.4,46.2,31.1,38.8,33.2,27.7,88,63,31,30.34,30.24,7,2,15,0.00
2013-5-26,61.5,46.6,30.0,41.6,33.8,27.5,90,64,39,30.29,30.13,6,1,12,0.00
2013-5-27,75.2,54.9,34.7,42.9,34.7,22.5,86,54,16,30.14,29.88,7,1,17,0.00
2013-5-28,61.5,54.7,48.0,50.7,45.0,40.0,84,70,52,29.88,29.65,4,1,9,0.00
2013-5-29,79.2,63.1,49.3,59.2,53.1,44.3,87,71,46,29.75,29.65,6,1,12,0.00
2013-5-30,89.8,72.5,61.3,65.7,61.6,56.5,92,72,42,29.75,29.60,8,2,30,0.32
2013-5-31,85.3,71.1,53.4,64.1,60.4,47.8,91,71,39,29.67,29.55,10,4,22,0.01
2013-6-1,75.7,53.3,43.3,61.7,48.4,40.2,93,84,60,29.67,29.52,9,2,20,0.53
2013-6-2,53.2,44.3,36.9,40.3,37.2,33.6,90,77,52,29.93,29.67,13,5,27,0.21
2013-6-3,56.7,45.2,32.5,43.6,34.1,29.1,93,67,39,30.03,29.92,8,2,18,0.00
2013-6-4,64.9,49.6,33.6,42.2,34.0,28.9,88,59,29,30.13,30.03,4,1,8,0.00
2013-6-5,55.6,48.7,46.0,47.8,42.9,38.6,89,81,69,30.10,30.01,2,0,5,0.04
2013-6-6,52.9,46.9,43.7,45.4,42.5,40.4,90,85,73,30.01,29.93,5,1,8,0.11
2013-6-7,66.7,53.7,43.5,49.5,42.7,38.6,91,69,36,29.95,29.85,6,1,9,0.01
2013-6-8,64.6,53.0,41.0,48.2,40.8,38.0,89,66,42,29.90,29.85,4,1,9,0.00
2013-6-9,58.6,58.6,58.6,40.6,40.6,40.6,51,51,51,29.89,29.89,2,2,6,0.00
2013-6-10,58.6,58.6,58.6,40.6,40.6,40.6,51,51,51,29.89,29.89,2,2,6,0.00
2013-6-11,58.6,58.6,58.6,40.6,40.6,40.6,51,51,51,29.89,29.89,2,2,6,0.00
2013-6-12,58.6,58.6,58.6,40.6,40.6,40.6,51,51,51,29.89,29.89,2,2,6,0.00
2013-6-13,58.6,58.6,58.6,40.6,40.6,40.6,51,51,51,29.89,29.89,2,2,6,0.00
2013-6-14,58.6,58.6,58.6,40.6,40.6,40.6,51,51,51,29.89,29.89,2,2,6,0.00
2013-6-15,58.6,58.6,58.6,40.6,40.6,40.6,51,51,51,29.89,29.89,2,2,6,0.00
2013-6-16,58.6,58.6,58.6,40.6,40.6,40.6,51,51,51,29.89,29.89,2,2,6,0.00
2013-6-17,58.6,58.6,58.6,40.6,40.6,40.6,51,51,51,29.89,29.89,2,2,6,0.00
2013-6-18,58.6,58.6,58.6,40.6,40.6,40.6,51,51,51,29.89,29.89,2,2,6,0.00
2013-6-19,58.6,58.6,58.6,40.6,40.6,40.6,51,51,51,29.89,29.89,2,2,6,0.00
2013-6-20,58.6,58.6,58.6,40.6,40.6,40.6,51,51,51,29.89,29.89,2,2,6,0.00
2013-7-13,27.0,22.1,7.9,22.1,14.5,3.5,85,72,62,30.34,30.27,10,4,15,0.00
2013-7-14,34.9,28.8,26.4,25.2,21.9,19.6,84,75,64,30.43,30.33,7,3,14,0.00
2013-7-15,37.9,30.1,26.4,25.7,22.1,19.1,79,72,61,30.48,30.41,5,2,10,0.00
2013-7-16,35.2,30.8,27.0,25.5,23.3,21.3,84,74,60,30.42,30.27,9,3,14,0.01
2013-7-17,36.1,32.2,28.9,28.4,25.4,23.1,86,76,64,30.47,30.31,8,4,15,0.00
2013-7-18,41.9,34.5,30.4,30.7,25.7,20.7,85,70,60,30.55,30.47,8,3,16,0.06
2013-7-19,85.1,69.8,32.2,72.8,57.8,22.8,91,66,41,30.58,29.93,10,4,20,0.01
2013-7-20,70.5,61.8,49.1,56.4,50.2,45.1,86,66,54,30.38,30.08,9,3,18,0.00
2013-7-21,74.8,58.3,42.3,55.3,48.8,40.4,94,73,47,30.41,30.26,5,1,12,0.00
2013-7-22,87.6,69.1,51.8,68.5,59.1,49.0,92,73,48,30.27,29.91,10,2,26,0.34
2013-7-23,66.2,59.4,51.1,59.3,51.0,46.1,91,74,57,30.33,30.03,14,4,29,0.02
2013-7-24,79.9,63.4,45.7,55.5,48.3,43.8,94,63,31,30.40,30.31,4,1,12,0.00
2013-7-25,82.2,66.5,41.9,63.3,56.2,27.3,91,72,42,30.34,29.90,8,2,17,0.15
2013-7-26,68.2,59.1,50.5,63.6,56.6,47.8,95,91,84,29.95,29.84,8,2,20,0.76
2013-7-27,61.7,54.8,49.3,50.7,47.6,46.2,91,77,60,29.93,29.84,5,2,14,0.00
2013-7-28,54.9,52.2,48.0,51.9,49.5,45.5,93,90,86,29.85,29.76,8,2,14,0.39
2013-7-29,73.8,54.1,52.7,53.8,50.6,50.2,91,88,48,29.96,29.85,4,4,14,0.39
2013-7-30,80.2,66.0,52.2,61.8,56.3,49.0,94,73,45,29.96,29.86,8,1,14,0.00
2013-7-31,82.0,69.5,60.4,63.6,59.6,55.1,88,72,49,29.86,29.67,6,1,18,0.00
2013-8-1,76.3,63.5,54.7,58.7,54.7,51.0,90,74,50,29.70,29.66,8,2,14,0.00
2013-8-2,73.0,64.3,56.1,58.1,55.3,51.5,91,74,55,29.73,29.60,8,2,18,0.00
2013-8-3,69.4,61.9,51.8,56.4,53.2,48.1,89,74,60,29.94,29.73,8,2,18,0.00
2013-8-4,77.0,63.0,47.3,54.1,49.4,41.3,91,64,31,30.03,29.88,6,1,14,0.00
2013-8-5,69.6,60.5,51.8,60.5,54.9,47.4,87,82,65,29.88,29.62,4,2,12,0.06
2013-8-6,80.2,67.4,60.8,65.0,61.4,58.5,93,82,58,29.64,29.53,7,2,17,0.06
2013-8-7,69.8,62.0,51.3,60.9,56.7,47.8,97,84,46,29.79,29.51,8,2,19,0.02
2013-8-8,75.9,60.3,47.7,57.2,51.3,45.5,94,75,43,29.83,29.78,6,1,12,0.02
2013-8-9,75.0,63.0,52.0,57.4,53.5,46.8,95,74,39,29.85,29.71,8,2,21,0.00
2013-8-10,75.9,61.5,47.8,56.7,51.5,46.2,96,73,42,29.94,29.85,5,1,11,0.00
2013-8-11,81.9,63.1,50.9,63.3,55.7,48.4,93,79,38,29.89,29.80,4,1,8,0.18
2013-8-12,75.2,60.6,54.9,62.3,54.4,46.0,95,81,56,29.85,29.71,14,3,24,0.07
2013-8-13,63.0,54.4,43.2,52.3,46.9,41.3,95,77,58,29.97,29.84,9,3,20,0.00
2013-8-14,72.7,56.5,41.5,50.8,45.7,39.9,95,71,40,29.99,29.89,6,1,14,0.00
2013-8-15,78.1,61.7,45.5,56.1,49.4,42.4,90,68,38,29.90,29.85,6,2,12,0.00
2013-8-16,82.2,65.2,49.5,60.0,53.1,46.9,91,69,36,29.95,29.90,4,1,9,0.00
2013-8-17,88.2,71.7,56.7,62.6,57.3,53.4,91,64,33,30.00,29.90,5,1,14,0.00
2013-8-18,86.2,71.6,58.8,61.0,57.5,55.0,88,64,36,29.97,29.82,8,2,16,0.00
2013-8-19,88.3,73.5,59.0,66.7,61.4,55.5,89,68,47,29.83,29.70,8,2,16,0.00
2013-8-20,93.4,79.3,68.0,69.7,65.6,62.8,84,65,39,29.77,29.69,8,3,17,0.00
2013-8-21,86.7,75.9,71.8,71.7,66.5,64.9,79,73,61,29.72,29.61,5,2,17,0.00
2013-8-22,75.0,67.9,54.0,63.8,56.9,51.4,98,70,51,30.03,29.92,6,2,14,0.00
2013-8-23,82.0,65.3,48.9,60.9,54.3,47.6,95,71,45,30.10,30.00,4,1,10,0.00
2013-8-24,86.0,72.4,60.1,61.5,58.1,54.8,85,63,42,30.08,29.93,9,3,23,0.00
2013-8-25,97.5,79.5,68.7,74.8,68.7,57.3,88,71,45,29.94,29.78,8,3,27,0.02
2013-8-26,84.2,76.3,66.9,73.7,68.3,65.0,96,77,57,29.85,29.74,4,1,19,0.56
2013-8-27,82.6,74.4,41.9,72.8,68.3,27.3,99,81,56,30.27,29.82,2,0,8,0.57